Starlink 31990

operational
NORAD ID: 60024 Int'l Des: 2024-111 Owner: SPXS Country: US Constellation: starlink
LEOCIRCULAR

Über Starlink 31990

Beschreibung wird geladen...

Live-Position

3D-Globus wird geladen...

Nächste Überflüge

Höhenverlauf

Altitude vs Time

uPlot chart will show altitude changes over time

Zweizeiliger Elementsatz

1 60024U 24111J 25306.32373628 .00000426 00000-0 26509-4 0 9999
2 60024 53.1611 307.1976 0001358 86.0057 274.1099 15.30193316 79535
Epoch: 2. Nov. 2025 • Age: 18 hours

Aktueller Status

Höhe 475.9 km
Geschwindigkeit 7.63 km/s
Subsatellitenpunkt 25.97°N, 35.1°E
Startdatum 8. Juni 2024
Alter 1.4 years
Typ internet

Technische Details

Klassifizierung Payload
Masse 730.00 kg
Trockenmasse 700.00 kg
Gesamtmasse 730.00 kg
Länge 0.30 m
Durchmesser 4.10 m
Spannweite 29.00 m
Form Box + pan
Hersteller SPXS
Bus-Typ Starlink V2M
Phasenstatus In Orbit
Besitzer/Staat SPXS/US

Große Konstellationen

Loading constellations...